[[{"header":{"parameterUnit":"m.s-1","parameterCategory":1,"la1":30.2991,"la2":30.254,"lo1":-89.0895,"lo2":-89.0444,"dy":0.0017,"dx":0.0017,"nx":28,"ny":28,"refTime":"2024-05-21T09:00:00:Z","depth":0,"parameterNumber":2,"parameterNumberName":"U-component_of_WINDS"},"data":[0,0,0,0,0,0,0,0,0,0,0,0,0,0,0,0,0,0,0,0,0,0,0,0,0,0,0,0,0,0,0,0,0,0,0,0,0,0,0,0,0,0,0,0,0,0,0,0,0,0,0,0,0,0,0,0,0,0,-3.7737,-3.7737,0,-3.7693,-3.7693,-3.7692,-3.7601,-3.7599,-3.7597,-3.7596,-3.7552,-3.7553,-3.7553,0,0,0,0,0,0,0,0,0,0,0,0,0,-3.7746,-3.7746,-3.7737,-3.7737,-3.7736,-3.7693,-3.7693,-3.7692,-3.7601,-3.7599,-3.7597,-3.7595,-3.7552,-3.7553,-3.7553,0,0,0,0,0,0,0,0,0,0,0,0,0,-3.7726,-3.7746,-3.7738,-3.7686,-3.7681,-3.7693,-3.7693,-3.7692,-3.7602,-3.7599,-3.7596,-3.7594,-3.7552,-3.7553,-3.7553,-3.7613,0,0,-3.7556,-3.7556,0,0,0,0,0,0,0,0,-3.7728,-3.7726,-3.7694,-3.7689,-3.7684,-3.765,-3.768,-3.7666,-3.7602,-3.7632,-3.7596,-3.7592,-3.7587,-3.7585,-3.7582,-3.7611,-3.7609,-3.7556,-3.7556,-3.7557,-3.7557,0,0,0,0,0,0,0,-3.7729,-3.7727,-3.772,-3.7694,-3.7687,-3.7666,-3.766,-3.7677,-3.7625,-3.7629,-3.7622,-3.7618,-3.7584,-3.7582,-3.7581,-3.7609,-3.7556,-3.7557,-3.7557,-3.7557,-3.7685,-3.7688,0,0,0,0,0,0,-3.7738,-3.7729,-3.7721,-3.7719,-3.7699,-3.7668,-3.7661,-3.7663,-3.7625,-3.7616,-3.7621,-3.7614,-3.7582,-3.758,-3.7579,-3.7646,-3.7557,-3.7558,-3.7558,-3.7682,-3.7686,-3.7689,0,0,0,0,0,0,-3.7738,-3.7738,-3.7723,-3.7722,-3.7719,-3.7671,-3.7674,-3.7664,-3.7662,-3.7619,-3.7609,-3.7628,-3.758,-3.7578,-3.7605,-3.7643,-3.7558,-3.7559,-3.7679,-3.7684,-3.7688,-3.7781,0,0,0,0,0,0,-3.7739,-3.7738,-3.776,-3.7723,-3.7719,-3.775,-3.7676,-3.7665,-3.7664,-3.7655,-3.7623,-3.7615,-3.7577,-3.7605,-3.7606,-3.7643,-3.7559,-3.7675,-3.7681,-3.7686,-3.7775,-3.7788,-3.78,0,0,0,0,0,-3.7739,-3.7788,-3.7761,-3.7761,-3.7745,-3.7752,-3.775,-3.7705,-3.7667,-3.7688,-3.7661,-3.7616,-3.764,-3.7608,-3.7609,-3.7647,-3.7673,-3.7679,-3.7686,-3.7769,-3.7786,-3.78,0,0,0,0,0,0,-3.7831,-3.7782,-3.7752,-3.7791,-3.7776,-3.7737,-3.7762,-3.7724,-3.772,-3.7712,-3.7657,-3.7651,-3.7686,-3.7669,-3.7635,-3.7703,-3.7649,-3.7656,-3.7712,-3.7728,-3.774,-3.7742,-3.756,0,0,0,0,0,-3.7856,-3.7865,-3.7823,-3.7861,-3.7855,-3.7811,-3.7812,-3.7779,-3.7762,-3.7755,-3.7729,-3.7715,-3.7719,-3.7723,-3.7724,-3.7773,-3.7764,-3.7799,-3.7812,-3.7823,-3.7829,-3.7853,-3.7868,-3.7711,-3.771,-3.771,0,0,-3.7907,-3.7881,-3.789,-3.7879,-3.7863,-3.7875,-3.7806,-3.7821,-3.7829,-3.7757,-3.7781,-3.7763,-3.7743,-3.7782,-3.7797,-3.7769,-3.7871,-3.7831,-3.784,-3.784,-3.7861,-3.7876,-3.789,-3.7715,-3.7714,-3.7713,0,0,-3.8005,-3.7987,-3.8016,-3.8003,-3.7981,-3.7951,-3.7959,-3.7925,-3.791,-3.7933,-3.788,-3.789,-3.7898,-3.7886,-3.7882,-3.7978,-3.7937,-3.7981,-3.8046,-3.8071,-3.8083,-3.8094,-3.8127,-3.814,-3.7987,-3.7988,-3.7988,0,-3.807,-3.8084,-3.8037,-3.8055,-3.8051,-3.7988,-3.8018,-3.8008,-3.7988,-3.7987,-3.7956,-3.7965,-3.7948,-3.7983,-3.8006,-3.8005,-3.8012,-3.7983,-3.8085,-3.8096,-3.8105,-3.8136,-3.8149,-3.7993,-3.7992,-3.7992,-3.7991,0,-3.8166,-3.8178,-3.8204,-3.8186,-3.8186,-3.821,-3.8167,-3.8173,-3.8141,-3.8115,-3.814,-3.8118,-3.8113,-3.812,-3.8088,-3.815,-3.8133,-3.8095,-3.8039,-3.8126,-3.8154,-3.8166,-3.8001,-3.7999,-3.7997,-3.7996,0,0,-3.8318,-3.8274,-3.8285,-3.8276,-3.8248,-3.8256,-3.8279,-3.8274,-3.828,-3.8269,-3.8286,-3.8296,-3.826,-3.8255,-3.8223,-3.8245,-3.8322,-3.8203,-3.8202,-3.8225,-3.8388,-3.8415,-3.843,-3.8296,-3.8298,-3.8299,-3.8389,0,-3.8408,-3.8442,-3.84,-3.8443,-3.8453,-3.8395,-3.8414,-3.84,-3.8377,-3.8383,-3.8358,-3.8365,-3.8318,-3.8315,-3.8334,-3.8308,-3.8353,-3.8302,-3.831,-3.8311,-3.8314,-3.8445,-3.8474,-3.8559,-3.84,-3.8402,-3.8403,0,-3.8517,-3.8511,-3.8555,-3.8525,-3.8527,-3.8545,-3.8538,-3.8545,-3.8528,-3.851,-3.8506,-3.8467,-3.8488,-3.8436,-3.8464,-3.8429,-3.8431,-3.842,-3.8422,-3.8419,-3.8361,-3.8444,-3.8586,-3.8598,-3.842,-3.8419,-3.8418,0,-3.8621,-3.8624,-3.8651,-3.8645,-3.8612,-3.8626,-3.8613,-3.8593,-3.8594,-3.8589,-3.8588,-3.8586,-3.8584,-3.8584,-3.8546,-3.8512,-3.8579,-3.8524,-3.8564,-3.8565,-3.8578,-3.8578,-3.8721,-3.8584,-3.8584,-3.8583,-3.8583,0,-3.8724,-3.8753,-3.8697,-3.8713,-3.8744,-3.8698,-3.873,-3.8711,-3.8695,-3.8707,-3.8658,-3.8671,-3.8621,-3.8629,-3.86,-3.8627,-3.8627,-3.8613,-3.8605,-3.8616,-3.8618,-3.8615,-3.8607,-3.8587,-3.8586,-3.8585,-3.8585,0,-3.8844,-3.8808,-3.8833,-3.88,-3.8792,-3.8817,-3.8788,-3.8802,-3.8778,-3.8794,-3.8795,-3.8756,-3.8763,-3.8726,-3.8726,-3.8707,-3.8748,-3.8731,-3.8753,-3.8747,-3.8789,-3.8785,-3.8933,-3.8949,-3.8804,-3.8806,-3.8807,0,-3.8911,-3.8932,-3.8901,-3.8906,-3.8895,-3.8903,-3.8903,-3.8859,-3.8861,-3.8845,-3.8862,-3.8864,-3.8864,-3.8878,-3.885,-3.885,-3.8831,-3.8883,-3.8831,-3.8842,-3.883,-3.8828,-3.883,-3.8893,-3.8895,-3.8897,-3.8898,0,-3.9034,-3.9015,-3.9017,-3.9013,-3.9015,-3.901,-3.9001,-3.9008,-3.8961,-3.8966,-3.8972,-3.8972,-3.8973,-3.8976,-3.8971,-3.8958,-3.8921,-3.8915,-3.8924,-3.8935,-3.8946,-3.8939,-3.8781,-3.8911,-3.891,-3.8909,-3.8908,-3.8907,-3.9128,-3.9144,-3.9125,-3.9129,-3.9118,-3.9112,-3.9123,-3.91,-3.9104,-3.9101,-3.9076,-3.9087,-3.9071,-3.906,-3.9052,-3.906,-3.9035,-3.9049,-3.9052,-3.9055,-3.9062,-3.8947,-3.906,-3.9059,-3.9059,-3.9058,-3.9058,0,-3.9247,-3.9232,-3.9236,-3.9226,-3.9229,-3.9194,-3.9184,-3.9189,-3.9199,-3.9188,-3.9188,-3.9196,-3.92,-3.9173,-3.9173,-3.9185,-3.9168,-3.9187,-3.9184,-3.9182,-3.9085,-3.9076,-3.9201,-3.9201,-3.9201,-3.9201,-3.9201,-3.9201,-3.9308,-3.9333,-3.9313,-3.9332,-3.9317,-3.9327,-3.9324,-3.9319,-3.9309,-3.932,-3.9322,-3.9305,-3.9288,-3.9287,-3.9289,-3.9281,-3.9283,-3.9307,-3.9293,-3.9203,-3.9189,-3.9175,-3.9167,-3.9308,-3.9308,-3.9389,-3.939,-3.939]},{"header":{"parameterUnit":"m.s-1","parameterCategory":1,"la1":30.2991,"la2":30.254,"lo1":-89.0895,"lo2":-89.0444,"dy":0.0017,"dx":0.0017,"nx":28,"ny":28,"refTime":"2024-05-21T09:00:00:Z","depth":0,"parameterNumber":3,"parameterNumberName":"V-component_of_WINDS"},"data":[0,0,0,0,0,0,0,0,0,0,0,0,0,0,0,0,0,0,0,0,0,0,0,0,0,0,0,0,0,0,0,0,0,0,0,0,0,0,0,0,0,0,0,0,0,0,0,0,0,0,0,0,0,0,0,0,0,0,3.8372,3.8373,0,3.8389,3.8389,3.8389,3.8416,3.8416,3.8417,3.8417,3.843,3.8429,3.8429,0,0,0,0,0,0,0,0,0,0,0,0,0,3.8362,3.8362,3.8372,3.8373,3.8373,3.8389,3.8389,3.8389,3.8416,3.8416,3.8417,3.8418,3.843,3.8429,3.8429,0,0,0,0,0,0,0,0,0,0,0,0,0,3.8371,3.8362,3.8372,3.8388,3.839,3.8389,3.8389,3.8389,3.8416,3.8417,3.8417,3.8418,3.843,3.8429,3.8429,3.8412,0,0,3.8428,3.8428,0,0,0,0,0,0,0,0,3.837,3.8371,3.8386,3.8387,3.8389,3.8401,3.839,3.8397,3.8416,3.8406,3.8417,3.8418,3.8419,3.842,3.8421,3.8413,3.8413,3.8428,3.8428,3.8428,3.8428,0,0,0,0,0,0,0,3.837,3.8371,3.8379,3.8386,3.8388,3.8394,3.8396,3.8391,3.8408,3.8407,3.8409,3.841,3.842,3.8421,3.8422,3.8414,3.8428,3.8428,3.8428,3.8428,3.8394,3.8393,0,0,0,0,0,0,3.8367,3.837,3.8378,3.8379,3.8381,3.8393,3.8396,3.8396,3.8408,3.8411,3.841,3.8412,3.8421,3.8422,3.8422,3.8404,3.8428,3.8428,3.8428,3.8395,3.8394,3.8393,0,0,0,0,0,0,3.8367,3.8368,3.8378,3.8375,3.8377,3.8393,3.8393,3.8396,3.8397,3.841,3.8413,3.8408,3.8422,3.8422,3.8415,3.8405,3.8428,3.8428,3.8395,3.8394,3.8393,3.8367,0,0,0,0,0,0,3.8366,3.8367,3.8362,3.8375,3.8377,3.8371,3.8393,3.8396,3.8398,3.84,3.8409,3.8412,3.8422,3.8415,3.8415,3.8405,3.8427,3.8396,3.8395,3.8394,3.8369,3.8365,3.8362,0,0,0,0,0,3.8366,3.8352,3.8361,3.8362,3.837,3.8371,3.8372,3.8386,3.8397,3.8391,3.8399,3.8411,3.8406,3.8414,3.8414,3.8404,3.8397,3.8395,3.8394,3.8371,3.8366,3.8362,0,0,0,0,0,0,3.8335,3.8354,3.8364,3.8355,3.8361,3.8375,3.8368,3.838,3.8382,3.8384,3.84,3.8402,3.8393,3.8398,3.8407,3.8389,3.8404,3.8402,3.8386,3.8382,3.8378,3.8377,3.8427,0,0,0,0,0,3.8328,3.8328,3.8344,3.8334,3.8337,3.8352,3.8352,3.8363,3.837,3.8372,3.838,3.8384,3.8384,3.8383,3.8383,3.837,3.8373,3.8363,3.8359,3.8357,3.8355,3.8349,3.8345,3.8387,3.8387,3.8387,0,0,3.8312,3.8322,3.8321,3.8328,3.8334,3.8333,3.8354,3.8351,3.835,3.8371,3.8365,3.8371,3.8378,3.8368,3.8364,3.8371,3.8344,3.8354,3.8352,3.8352,3.8347,3.8342,3.8339,3.8386,3.8386,3.8386,0,0,3.8282,3.829,3.8283,3.829,3.8299,3.831,3.8308,3.8321,3.8326,3.8321,3.8337,3.8336,3.8334,3.8339,3.8341,3.8315,3.8326,3.8314,3.8296,3.829,3.8286,3.8284,3.8275,3.8271,3.8312,3.8312,3.8312,0,3.8261,3.8261,3.8278,3.8275,3.8278,3.8299,3.8292,3.8297,3.8305,3.8306,3.8315,3.8315,3.8321,3.8313,3.8307,3.8307,3.8306,3.8313,3.8286,3.8283,3.8281,3.8272,3.8269,3.8311,3.8311,3.8311,3.8311,0,3.8234,3.8234,3.8227,3.8237,3.8239,3.8234,3.825,3.825,3.826,3.827,3.8265,3.8273,3.8275,3.8274,3.8284,3.8268,3.8272,3.8283,3.8298,3.8275,3.8267,3.8264,3.8309,3.8309,3.831,3.831,0,0,3.8184,3.8206,3.8203,3.8208,3.8221,3.8221,3.8217,3.8221,3.8221,3.8227,3.8223,3.8223,3.8234,3.8236,3.8246,3.8241,3.8221,3.8253,3.8253,3.8247,3.8204,3.8196,3.8192,3.8229,3.8228,3.8228,3.8204,0,3.8157,3.8153,3.8169,3.8161,3.8161,3.8181,3.8178,3.8185,3.8194,3.8194,3.8204,3.8203,3.8218,3.8219,3.8215,3.8224,3.8212,3.8226,3.8225,3.8225,3.8223,3.8188,3.8179,3.8155,3.8201,3.82,3.82,0,3.8125,3.8131,3.8123,3.8138,3.8139,3.8135,3.8141,3.8142,3.8151,3.8157,3.8161,3.8174,3.817,3.8185,3.8181,3.819,3.819,3.8195,3.8194,3.8194,3.8211,3.8187,3.8148,3.8145,3.8195,3.8196,3.8196,0,3.809,3.8096,3.8093,3.8096,3.8114,3.8111,3.8118,3.8127,3.813,3.8134,3.8136,3.814,3.8142,3.8144,3.8157,3.8167,3.8151,3.8167,3.8156,3.8156,3.8151,3.8151,3.8112,3.8152,3.8152,3.8152,3.8152,0,3.8059,3.8053,3.8078,3.8075,3.8069,3.8088,3.8081,3.809,3.8099,3.8098,3.8115,3.8114,3.8131,3.8132,3.8142,3.8137,3.8137,3.8142,3.8145,3.8141,3.814,3.8141,3.8143,3.8151,3.8151,3.8151,3.8152,0,3.8019,3.8035,3.8033,3.805,3.8054,3.8049,3.8063,3.8061,3.8072,3.8071,3.8072,3.8088,3.8089,3.8103,3.8107,3.8114,3.8105,3.811,3.8102,3.8104,3.8093,3.8094,3.8053,3.8048,3.809,3.809,3.809,0,3.7997,3.7994,3.8012,3.8013,3.802,3.8022,3.8025,3.8043,3.8045,3.8055,3.8052,3.8056,3.8059,3.806,3.8072,3.8075,3.8081,3.8067,3.8081,3.8078,3.8081,3.8081,3.8081,3.8063,3.8063,3.8062,3.8062,0,3.7958,3.7967,3.7971,3.7979,3.7982,3.7989,3.7996,3.7996,3.8016,3.8017,3.802,3.8023,3.8028,3.8031,3.8037,3.8043,3.8055,3.8057,3.8055,3.805,3.8046,3.8049,3.8094,3.8058,3.8058,3.8059,3.8059,3.8059,3.7927,3.7926,3.7938,3.7943,3.795,3.7957,3.7957,3.7968,3.7971,3.7978,3.7989,3.799,3.7999,3.8009,3.8014,3.8014,3.8022,3.8018,3.8017,3.8016,3.8014,3.8046,3.8015,3.8016,3.8016,3.8016,3.8016,0,3.7889,3.7899,3.7903,3.7914,3.7917,3.7931,3.794,3.7941,3.7943,3.7952,3.7956,3.7959,3.7962,3.7975,3.7979,3.7977,3.7983,3.7978,3.7978,3.7979,3.8007,3.8009,3.7973,3.7973,3.7973,3.7973,3.7973,3.7973,3.787,3.7868,3.7879,3.7881,3.789,3.7893,3.7897,3.7903,3.791,3.7914,3.7917,3.7926,3.7936,3.7942,3.7945,3.7949,3.795,3.7942,3.7948,3.7973,3.7977,3.7981,3.7983,3.7942,3.7942,3.792,3.792,3.792]}]]